This is the latest recevied weather packets stored in our database for station/object K0GDI. If no packets are shown the sender has not sent any weather packets the latest 10 day(s).
| Time | Temp. | Humidity | Pressure | Rain* | Wind** | Luminosity | Snow |
|---|---|---|---|---|---|---|---|
| 1788161831 | 68° F | 74% | 762.8 mmHg | 0 in | 1 mph, 281° | - | - |
| 1788160608 | 68° F | 76% | 762.8 mmHg | 0 in | 1 mph, 226° | - | - |
| 1788159996 | 68° F | 76% | 762.8 mmHg | 0 in | 1 mph, 256° | - | - |
| 1788158478 | 68° F | 78% | 762.8 mmHg | 0 in | 1 mph, 190° | - | - |
| 1788158192 | 68° F | 77% | 762.8 mmHg | 0 in | 1 mph, 233° | - | - |
| 1788157578 | 69° F | 76% | 762.8 mmHg | 0 in | 1 mph, 218° | - | - |
| 1788156964 | 70° F | 74% | 762.8 mmHg | 0 in | 1 mph, 176° | - | - |
| 1788155759 | 71° F | 69% | 762.8 mmHg | 0 in | 2 mph, 151° | - | - |
| 1788153936 | 71° F | 68% | 762.8 mmHg | 0 in | 2 mph, 147° | - | - |
| 1788153320 | 71° F | 69% | 762.8 mmHg | 0 in | 2 mph, 149° | - | - |
| 1788152105 | 72° F | 65% | 762.8 mmHg | 0 in | 2 mph, 160° | - | - |
| 1788151492 | 72° F | 66% | 762.8 mmHg | 0 in | 1 mph, 167° | - | - |
| 1788150877 | 73° F | 65% | 762.8 mmHg | 0 in | 2 mph, 158° | - | - |
| 1788150263 | 74° F | 63% | 762.8 mmHg | 0 in | 2 mph, 155° | - | - |
| 1788148419 | 75° F | 62% | 762.8 mmHg | 0 in | 3 mph, 155° | - | - |
| 1788147805 | 75° F | 65% | 762.8 mmHg | 0 in | 2 mph, 160° | - | - |
| 1788147189 | 75° F | 64% | 762.8 mmHg | 0 in | 2 mph, 159° | - | - |
| 1788146574 | 75° F | 63% | 762.8 mmHg | 0 in | 3 mph, 155° | - | - |
| 1788145961 | 76° F | 63% | 762.8 mmHg | 0 in | 3 mph, 158° | - | - |
| 1788145345 | 76° F | 65% | 762.8 mmHg | 0 in | 3 mph, 160° | - | - |
| 1788144731 | 76° F | 64% | 762.8 mmHg | 0 in | 3 mph, 154° | - | - |
| 1788144117 | 76° F | 67% | 762.8 mmHg | 0 in | 2 mph, 165° | - | - |
| 1788143502 | 76° F | 65% | 762.8 mmHg | 0 in | 2 mph, 163° | - | - |
| 1788142888 | 77° F | 65% | 762.8 mmHg | 0 in | 2 mph, 166° | - | - |
| 1788142274 | 78° F | 63% | 762.8 mmHg | 0 in | 2 mph, 162° | - | - |
* Rain latest hour (hover to see other rain measurements)
** Current wind speed in m/s (hover to see current wind gust speed)